| time (UTC) | temp F | wind direction | speed MPH | gust MPH | rain 1hr in | rain 24hr in | rain mn in | humidity % | barometer mb |
| 20260510224533 | 65 | 0 | 0.0 | 0.0 | 0.00 | 0.00 | 0.00 | 69 | 1013.0 |
| 20260510224025 | 65 | 0 | 0.0 | 0.0 | 0.00 | 0.00 | 0.00 | 69 | 1013.1 |
| 20260510223525 | 65 | 0 | 0.0 | 2.0 | 0.00 | 0.00 | 0.00 | 69 | 1013.1 |
| 20260510223040 | 65 | 0 | 0.0 | 3.0 | 0.00 | 0.00 | 0.00 | 69 | 1013.2 |
| 20260510222526 | 65 | 183 | 1.0 | 3.0 | 0.00 | 0.00 | 0.00 | 69 | 1013.1 |
| 20260510222025 | 65 | 184 | 1.0 | 3.0 | 0.00 | 0.00 | 0.00 | 68 | 1013.2 |
| 20260510221536 | 65 | 184 | 1.0 | 3.0 | 0.00 | 0.00 | 0.00 | 69 | 1013.4 |
| 20260510221026 | 65 | 184 | 1.0 | 3.0 | 0.00 | 0.00 | 0.00 | 69 | 1013.3 |
| 20260510220526 | 65 | 184 | 1.0 | 3.0 | 0.00 | 0.00 | 0.00 | 69 | 1013.4 |
| 20260510220046 | 65 | 0 | 0.0 | 2.0 | 0.00 | 0.00 | 0.00 | 69 | 1013.5 |
| 20260510215525 | 65 | 0 | 0.0 | 0.0 | 0.00 | 0.00 | 0.00 | 69 | 1013.5 |
| 20260510215025 | 65 | 0 | 0.0 | 0.0 | 0.00 | 0.00 | 0.00 | 69 | 1013.5 |
| 20260510214535 | 65 | 0 | 0.0 | 0.0 | 0.00 | 0.00 | 0.00 | 69 | 1013.5 |
| 20260510214025 | 65 | 0 | 0.0 | 0.0 | 0.00 | 0.00 | 0.00 | 69 | 1013.6 |
| 20260510213525 | 65 | 0 | 0.0 | 0.0 | 0.00 | 0.00 | 0.00 | 69 | 1013.7 |
| 20260510213038 | 65 | 0 | 0.0 | 1.0 | 0.00 | 0.00 | 0.00 | 69 | 1013.5 |
| 20260510212528 | 65 | 0 | 0.0 | 1.0 | 0.00 | 0.00 | 0.00 | 69 | 1013.6 |
| 20260510212027 | 65 | 0 | 0.0 | 2.0 | 0.00 | 0.00 | 0.00 | 69 | 1013.6 |
| 20260510211540 | 65 | 0 | 0.0 | 2.0 | 0.00 | 0.00 | 0.00 | 69 | 1013.6 |
| 20260510211025 | 65 | 0 | 1.0 | 2.0 | 0.00 | 0.00 | 0.00 | 69 | 1013.6 |
| 20260510210529 | 65 | 0 | 1.0 | 2.0 | 0.00 | 0.00 | 0.00 | 69 | 1013.6 |
| 20260510210035 | 65 | 185 | 1.0 | 2.0 | 0.00 | 0.00 | 0.00 | 69 | 1013.6 |
| 20260510205526 | 65 | 186 | 0.0 | 3.0 | 0.00 | 0.00 | 0.00 | 69 | 1013.6 |
| 20260510205026 | 66 | 0 | 0.0 | 3.0 | 0.00 | 0.00 | 0.00 | 69 | 1013.5 |
| 20260510204536 | 66 | 193 | 1.0 | 3.0 | 0.00 | 0.00 | 0.00 | 68 | 1013.5 |
| 20260510204025 | 66 | 0 | 0.0 | 0.0 | 0.00 | 0.00 | 0.00 | 66 | 1013.6 |
| 20260510203527 | 66 | 0 | 0.0 | 0.0 | 0.00 | 0.00 | 0.00 | 67 | 1013.6 |
| 20260510203040 | 66 | 0 | 0.0 | 0.0 | 0.00 | 0.00 | 0.00 | 66 | 1013.6 |
| 20260510202525 | 66 | 0 | 0.0 | 0.0 | 0.00 | 0.00 | 0.00 | 67 | 1013.6 |
| 20260510202025 | 66 | 0 | 0.0 | 0.0 | 0.00 | 0.00 | 0.00 | 68 | 1013.6 |
| 20260510201538 | 66 | 0 | 0.0 | 0.0 | 0.00 | 0.00 | 0.00 | 68 | 1013.8 |
| 20260510201025 | 66 | 0 | 0.0 | 0.0 | 0.00 | 0.00 | 0.00 | 68 | 1013.8 |
| 20260510200525 | 67 | 0 | 0.0 | 4.0 | 0.00 | 0.00 | 0.00 | 67 | 1013.8 |
| 20260510200042 | 67 | 0 | 1.0 | 4.0 | 0.00 | 0.00 | 0.00 | 65 | 1013.8 |
| 20260510195524 | 67 | 277 | 0.0 | 4.0 | 0.00 | 0.00 | 0.00 | 65 | 1013.8 |
| 20260510195024 | 67 | 0 | 2.0 | 4.0 | 0.00 | 0.00 | 0.00 | 65 | 1013.8 |
| 20260510194534 | 67 | 279 | 1.0 | 4.0 | 0.00 | 0.00 | 0.00 | 65 | 1013.8 |
| 20260510194025 | 67 | 280 | 1.0 | 3.0 | 0.00 | 0.00 | 0.00 | 66 | 1013.8 |
| 20260510193525 | 67 | 281 | 1.0 | 2.0 | 0.00 | 0.00 | 0.00 | 66 | 1013.7 |
| 20260510193050 | 67 | 0 | 0.0 | 3.0 | 0.00 | 0.00 | 0.00 | 66 | 1013.8 |
| 20260510192525 | 67 | 0 | 0.0 | 3.0 | 0.00 | 0.00 | 0.00 | 66 | 1013.8 |
| 20260510192024 | 67 | 281 | 1.0 | 3.0 | 0.00 | 0.00 | 0.00 | 66 | 1013.7 |
| 20260510191538 | 67 | 0 | 0.0 | 3.0 | 0.00 | 0.00 | 0.00 | 66 | 1013.8 |
| 20260510191025 | 67 | 283 | 1.0 | 3.0 | 0.00 | 0.00 | 0.00 | 66 | 1013.7 |
| 20260510190525 | 67 | 283 | 1.0 | 3.0 | 0.00 | 0.00 | 0.00 | 66 | 1013.7 |
| 20260510190036 | 68 | 283 | 0.0 | 3.0 | 0.00 | 0.00 | 0.00 | 66 | 1013.8 |
| 20260510185525 | 68 | 0 | 0.0 | 3.0 | 0.00 | 0.00 | 0.00 | 66 | 1013.8 |
| 20260510185024 | 68 | 284 | 0.0 | 3.0 | 0.00 | 0.00 | 0.00 | 66 | 1013.6 |
| 20260510184540 | 68 | 0 | 0.0 | 3.0 | 0.00 | 0.00 | 0.00 | 66 | 1013.6 |
| 20260510184028 | 68 | 284 | 1.0 | 3.0 | 0.00 | 0.00 | 0.00 | 65 | 1013.5 |
| 20260510183525 | 68 | 0 | 0.0 | 4.0 | 0.00 | 0.00 | 0.00 | 65 | 1013.5 |
| 20260510183045 | 68 | 284 | 2.0 | 4.0 | 0.00 | 0.00 | 0.00 | 65 | 1013.5 |
| 20260510182524 | 68 | 286 | 1.0 | 4.0 | 0.00 | 0.00 | 0.00 | 65 | 1013.7 |
| 20260510182021 | 68 | 288 | 1.0 | 4.0 | 0.00 | 0.00 | 0.00 | 65 | 1013.6 |
| 20260510181536 | 68 | 287 | 1.0 | 4.0 | 0.00 | 0.00 | 0.00 | 64 | 1013.5 |
| 20260510181025 | 68 | 286 | 0.0 | 3.0 | 0.00 | 0.00 | 0.00 | 64 | 1013.5 |
| 20260510180526 | 69 | 0 | 0.0 | 3.0 | 0.00 | 0.00 | 0.00 | 63 | 1013.4 |
| 20260510180046 | 69 | 0 | 0.0 | 3.0 | 0.00 | 0.00 | 0.00 | 64 | 1013.4 |
| 20260510175525 | 69 | 286 | 1.0 | 4.0 | 0.00 | 0.00 | 0.00 | 63 | 1013.5 |
| 20260510175025 | 69 | 286 | 2.0 | 4.0 | 0.00 | 0.00 | 0.00 | 63 | 1013.6 |
| 20260510174535 | 69 | 287 | 2.0 | 4.0 | 0.00 | 0.00 | 0.00 | 63 | 1013.5 |
| 20260510174026 | 69 | 292 | 1.0 | 4.0 | 0.00 | 0.00 | 0.00 | 63 | 1013.4 |
| 20260510173525 | 69 | 290 | 1.0 | 5.0 | 0.00 | 0.00 | 0.00 | 62 | 1013.5 |
| 20260510173039 | 69 | 0 | 2.0 | 5.0 | 0.00 | 0.00 | 0.00 | 62 | 1013.4 |
| 20260510172525 | 69 | 298 | 2.0 | 5.0 | 0.00 | 0.00 | 0.00 | 62 | 1013.3 |
| 20260510172025 | 69 | 293 | 2.0 | 5.0 | 0.00 | 0.00 | 0.00 | 62 | 1013.4 |
| 20260510171537 | 70 | 284 | 1.0 | 4.0 | 0.00 | 0.00 | 0.00 | 61 | 1013.4 |
| 20260510171024 | 70 | 275 | 2.0 | 4.0 | 0.00 | 0.00 | 0.00 | 61 | 1013.3 |
| 20260510170521 | 70 | 271 | 2.0 | 4.0 | 0.00 | 0.00 | 0.00 | 61 | 1013.3 |
| 20260510170039 | 71 | 242 | 1.0 | 3.0 | 0.00 | 0.00 | 0.00 | 60 | 1013.3 |
| 20260510165522 | 70 | 228 | 0.0 | 3.0 | 0.00 | 0.00 | 0.00 | 61 | 1013.2 |
| 20260510165025 | 70 | 227 | 2.0 | 3.0 | 0.00 | 0.00 | 0.00 | 61 | 1013.2 |
| 20260510164549 | 70 | 225 | 1.0 | 3.0 | 0.00 | 0.00 | 0.00 | 61 | 1013.2 |
| 20260510164024 | 70 | 225 | 1.0 | 3.0 | 0.00 | 0.00 | 0.00 | 61 | 1013.3 |
| 20260510163525 | 70 | 224 | 1.0 | 3.0 | 0.00 | 0.00 | 0.00 | 61 | 1013.3 |
| 20260510163045 | 70 | 223 | 1.0 | 3.0 | 0.00 | 0.00 | 0.00 | 60 | 1013.2 |
| 20260510162525 | 70 | 222 | 1.0 | 4.0 | 0.00 | 0.00 | 0.00 | 60 | 1013.2 |
| 20260510162026 | 70 | 0 | 2.0 | 4.0 | 0.00 | 0.00 | 0.00 | 60 | 1013.3 |
| 20260510161542 | 70 | 225 | 2.0 | 5.0 | 0.00 | 0.00 | 0.00 | 60 | 1013.4 |
| 20260510161025 | 71 | 205 | 2.0 | 5.0 | 0.00 | 0.00 | 0.00 | 60 | 1013.4 |
| 20260510160525 | 71 | 192 | 0.0 | 4.0 | 0.00 | 0.00 | 0.00 | 60 | 1013.5 |
| 20260510160054 | 71 | 187 | 0.0 | 6.0 | 0.00 | 0.00 | 0.00 | 59 | 1013.6 |
| 20260510155527 | 71 | 172 | 3.0 | 7.0 | 0.00 | 0.00 | 0.00 | 59 | 1013.7 |
| 20260510155022 | 71 | 209 | 3.0 | 10.0 | 0.00 | 0.00 | 0.00 | 59 | 1013.8 |
| 20260510154540 | 71 | 231 | 3.0 | 10.0 | 0.00 | 0.00 | 0.00 | 58 | 1013.9 |
| 20260510154026 | 72 | 241 | 2.0 | 6.0 | 0.00 | 0.00 | 0.00 | 59 | 1013.7 |
| 20260510153526 | 71 | 246 | 3.0 | 8.0 | 0.00 | 0.00 | 0.00 | 59 | 1013.7 |
| 20260510153034 | 71 | 221 | 4.0 | 8.0 | 0.00 | 0.00 | 0.00 | 59 | 1013.7 |
| 20260510152527 | 71 | 235 | 5.0 | 8.0 | 0.00 | 0.00 | 0.00 | 59 | 1013.7 |
| 20260510152026 | 72 | 244 | 3.0 | 8.0 | 0.00 | 0.00 | 0.00 | 59 | 1013.8 |
| 20260510151544 | 72 | 250 | 2.0 | 8.0 | 0.00 | 0.00 | 0.00 | 59 | 1013.7 |
| 20260510151026 | 72 | 257 | 4.0 | 8.0 | 0.00 | 0.00 | 0.00 | 59 | 1013.7 |
| 20260510150527 | 72 | 238 | 3.0 | 7.0 | 0.00 | 0.00 | 0.00 | 59 | 1013.7 |
| 20260510150045 | 72 | 271 | 2.0 | 7.0 | 0.00 | 0.00 | 0.00 | 59 | 1013.7 |
| 20260510145527 | 72 | 261 | 1.0 | 11.0 | 0.00 | 0.00 | 0.00 | 60 | 1013.7 |
| 20260510145027 | 71 | 265 | 3.0 | 11.0 | 0.00 | 0.00 | 0.00 | 61 | 1013.9 |
| 20260510144551 | 72 | 271 | 6.0 | 11.0 | 0.00 | 0.00 | 0.00 | 60 | 1014.0 |
| 20260510144027 | 72 | 234 | 6.0 | 12.0 | 0.00 | 0.00 | 0.00 | 60 | 1013.9 |
| 20260510143526 | 72 | 263 | 6.0 | 13.0 | 0.00 | 0.00 | 0.00 | 60 | 1014.1 |
| 20260510143042 | 72 | 243 | 4.0 | 13.0 | 0.00 | 0.00 | 0.00 | 62 | 1014.1 |
| 20260510142524 | 72 | 246 | 7.0 | 13.0 | 0.00 | 0.00 | 0.00 | 62 | 1014.0 |
| 20260510142026 | 72 | 214 | 6.0 | 11.0 | 0.00 | 0.00 | 0.00 | 63 | 1013.7 |
| 20260510141536 | 72 | 267 | 5.0 | 11.0 | 0.00 | 0.00 | 0.00 | 62 | 1013.7 |
| 20260510141027 | 72 | 217 | 5.0 | 9.0 | 0.00 | 0.00 | 0.00 | 61 | 1013.7 |
| 20260510140528 | 73 | 274 | 5.0 | 9.0 | 0.00 | 0.00 | 0.00 | 60 | 1013.5 |
| 20260510140035 | 73 | 220 | 2.0 | 11.0 | 0.00 | 0.00 | 0.00 | 60 | 1013.5 |
| 20260510135526 | 73 | 262 | 7.0 | 11.0 | 0.00 | 0.00 | 0.00 | 59 | 1013.6 |
| 20260510135027 | 73 | 159 | 4.0 | 9.0 | 0.00 | 0.00 | 0.00 | 58 | 1013.6 |
| 20260510134541 | 74 | 268 | 2.0 | 8.0 | 0.00 | 0.00 | 0.00 | 60 | 1013.6 |
| 20260510134028 | 74 | 99 | 1.0 | 9.0 | 0.00 | 0.00 | 0.00 | 59 | 1013.4 |
| 20260510133528 | 73 | 114 | 3.0 | 9.0 | 0.00 | 0.00 | 0.00 | 60 | 1013.6 |
| 20260510133037 | 74 | 115 | 5.0 | 9.0 | 0.00 | 0.00 | 0.00 | 59 | 1013.6 |
| 20260510132527 | 74 | 125 | 1.0 | 9.0 | 0.00 | 0.00 | 0.00 | 58 | 1013.7 |
| 20260510132024 | 74 | 132 | 4.0 | 9.0 | 0.00 | 0.00 | 0.00 | 59 | 1013.8 |
| 20260510131533 | 74 | 105 | 3.0 | 9.0 | 0.00 | 0.00 | 0.00 | 59 | 1013.7 |
| 20260510131025 | 74 | 116 | 2.0 | 8.0 | 0.00 | 0.00 | 0.00 | 59 | 1013.3 |
| 20260510130528 | 74 | 256 | 3.0 | 9.0 | 0.00 | 0.00 | 0.00 | 59 | 1014.0 |
| 20260510130037 | 74 | 223 | 4.0 | 10.0 | 0.00 | 0.00 | 0.00 | 57 | 1014.3 |
| 20260510125526 | 74 | 259 | 4.0 | 11.0 | 0.00 | 0.00 | 0.00 | 58 | 1014.3 |
| 20260510125026 | 74 | 205 | 7.0 | 12.0 | 0.00 | 0.00 | 0.00 | 58 | 1014.3 |
| 20260510124605 | 74 | 206 | 7.0 | 12.0 | 0.00 | 0.00 | 0.00 | 57 | 1014.5 |
| 20260510124026 | 74 | 210 | 6.0 | 14.0 | 0.00 | 0.00 | 0.00 | 56 | 1014.6 |
| 20260510123528 | 75 | 235 | 5.0 | 14.0 | 0.00 | 0.00 | 0.00 | 55 | 1014.7 |
| 20260510123042 | 76 | 232 | 6.0 | 14.0 | 0.00 | 0.00 | 0.00 | 53 | 1014.7 |
| 20260510122527 | 76 | 227 | 5.0 | 12.0 | 0.00 | 0.00 | 0.00 | 52 | 1014.8 |
| 20260510122028 | 76 | 281 | 5.0 | 12.0 | 0.00 | 0.00 | 0.00 | 51 | 1014.8 |
| 20260510121537 | 76 | 215 | 8.0 | 15.0 | 0.00 | 0.00 | 0.00 | 52 | 1014.9 |
| 20260510121028 | 77 | 254 | 6.0 | 15.0 | 0.00 | 0.00 | 0.00 | 51 | 1015.0 |
| 20260510120531 | 76 | 260 | 8.0 | 15.0 | 0.00 | 0.00 | 0.00 | 52 | 1015.0 |
| 20260510120035 | 77 | 230 | 4.0 | 14.0 | 0.00 | 0.00 | 0.00 | 51 | 1015.0 |
| 20260510115526 | 76 | 246 | 8.0 | 15.0 | 0.00 | 0.00 | 0.00 | 52 | 1015.0 |
| 20260510115027 | 77 | 241 | 6.0 | 15.0 | 0.00 | 0.00 | 0.00 | 53 | 1015.0 |
| 20260510114536 | 77 | 235 | 8.0 | 15.0 | 0.00 | 0.00 | 0.00 | 53 | 1015.0 |
| 20260510114027 | 77 | 210 | 5.0 | 14.0 | 0.00 | 0.00 | 0.00 | 52 | 1015.0 |
| 20260510113528 | 76 | 245 | 7.0 | 14.0 | 0.00 | 0.00 | 0.00 | 52 | 1014.9 |
| 20260510113035 | 76 | 269 | 6.0 | 13.0 | 0.00 | 0.00 | 0.00 | 52 | 1014.9 |
| 20260510112530 | 77 | 254 | 6.0 | 12.0 | 0.00 | 0.00 | 0.00 | 52 | 1015.0 |
| 20260510112030 | 77 | 273 | 5.0 | 11.0 | 0.00 | 0.00 | 0.00 | 52 | 1014.8 |
| 20260510111558 | 77 | 267 | 5.0 | 11.0 | 0.00 | 0.00 | 0.00 | 52 | 1014.8 |
| 20260510111026 | 76 | 218 | 3.0 | 10.0 | 0.00 | 0.00 | 0.00 | 52 | 1014.9 |
| 20260510110527 | 76 | 221 | 5.0 | 10.0 | 0.00 | 0.00 | 0.00 | 52 | 1014.8 |
| 20260510110039 | 76 | 231 | 3.0 | 10.0 | 0.00 | 0.00 | 0.00 | 53 | 1014.8 |
| 20260510105527 | 75 | 250 | 5.0 | 11.0 | 0.00 | 0.00 | 0.00 | 54 | 1014.8 |
| 20260510105026 | 74 | 248 | 6.0 | 11.0 | 0.00 | 0.00 | 0.00 | 55 | 1014.9 |
| 20260510104542 | 75 | 229 | 6.0 | 11.0 | 0.00 | 0.00 | 0.00 | 54 | 1014.9 |
| 20260510104026 | 75 | 241 | 4.0 | 10.0 | 0.00 | 0.00 | 0.00 | 54 | 1015.0 |
| 20260510103526 | 76 | 230 | 5.0 | 11.0 | 0.00 | 0.00 | 0.00 | 54 | 1015.1 |
| 20260510103038 | 75 | 259 | 7.0 | 11.0 | 0.00 | 0.00 | 0.00 | 54 | 1015.1 |
| 20260510102527 | 75 | 248 | 5.0 | 11.0 | 0.00 | 0.00 | 0.00 | 54 | 1015.2 |
| 20260510102027 | 75 | 262 | 6.0 | 11.0 | 0.00 | 0.00 | 0.00 | 53 | 1015.2 |
| 20260510101532 | 75 | 256 | 6.0 | 12.0 | 0.00 | 0.00 | 0.00 | 53 | 1015.2 |
| 20260510101026 | 75 | 271 | 4.0 | 12.0 | 0.00 | 0.00 | 0.00 | 53 | 1015.2 |
| 20260510100528 | 76 | 216 | 5.0 | 12.0 | 0.00 | 0.00 | 0.00 | 51 | 1015.4 |
| 20260510100036 | 76 | 252 | 5.0 | 11.0 | 0.00 | 0.00 | 0.00 | 52 | 1015.5 |
| 20260510095527 | 76 | 196 | 4.0 | 12.0 | 0.00 | 0.00 | 0.00 | 55 | 1015.5 |
| 20260510095031 | 75 | 180 | 5.0 | 12.0 | 0.00 | 0.00 | 0.00 | 55 | 1015.5 |
| 20260510094537 | 75 | 249 | 6.0 | 12.0 | 0.00 | 0.00 | 0.00 | 55 | 1015.7 |
| 20260510094027 | 75 | 261 | 4.0 | 13.0 | 0.00 | 0.00 | 0.00 | 56 | 1015.6 |
| 20260510093527 | 74 | 259 | 6.0 | 13.0 | 0.00 | 0.00 | 0.00 | 55 | 1015.6 |
| 20260510093036 | 74 | 237 | 4.0 | 11.0 | 0.00 | 0.00 | 0.00 | 56 | 1015.5 |
| 20260510092527 | 75 | 223 | 6.0 | 12.0 | 0.00 | 0.00 | 0.00 | 56 | 1015.6 |
| 20260510092026 | 75 | 202 | 5.0 | 13.0 | 0.00 | 0.00 | 0.00 | 55 | 1015.5 |
| 20260510091549 | 75 | 277 | 7.0 | 13.0 | 0.00 | 0.00 | 0.00 | 56 | 1015.6 |
| 20260510091026 | 75 | 219 | 4.0 | 10.0 | 0.00 | 0.00 | 0.00 | 55 | 1015.4 |
| 20260510090526 | 74 | 251 | 6.0 | 11.0 | 0.00 | 0.00 | 0.00 | 57 | 1015.6 |
| 20260510090037 | 74 | 249 | 4.0 | 12.0 | 0.00 | 0.00 | 0.00 | 59 | 1015.6 |
| 20260510085528 | 73 | 253 | 8.0 | 12.0 | 0.00 | 0.00 | 0.00 | 60 | 1015.6 |
| 20260510085026 | 73 | 261 | 6.0 | 12.0 | 0.00 | 0.00 | 0.00 | 60 | 1015.6 |
| 20260510084547 | 73 | 249 | 3.0 | 9.0 | 0.00 | 0.00 | 0.00 | 59 | 1015.6 |
| 20260510084028 | 74 | 238 | 4.0 | 12.0 | 0.00 | 0.00 | 0.00 | 58 | 1015.5 |
| 20260510083527 | 73 | 202 | 7.0 | 12.0 | 0.00 | 0.00 | 0.00 | 59 | 1015.6 |
| 20260510083037 | 74 | 207 | 4.0 | 11.0 | 0.00 | 0.00 | 0.00 | 59 | 1015.6 |
| 20260510082526 | 74 | 229 | 6.0 | 11.0 | 0.00 | 0.00 | 0.00 | 58 | 1015.6 |
| 20260510082027 | 73 | 294 | 6.0 | 11.0 | 0.00 | 0.00 | 0.00 | 57 | 1015.6 |
| 20260510081541 | 73 | 278 | 4.0 | 9.0 | 0.00 | 0.00 | 0.00 | 57 | 1015.6 |
| 20260510081027 | 73 | 255 | 4.0 | 10.0 | 0.00 | 0.00 | 0.00 | 58 | 1015.5 |
| 20260510080526 | 73 | 240 | 2.0 | 10.0 | 0.00 | 0.00 | 0.00 | 59 | 1015.3 |
| 20260510080036 | 73 | 254 | 4.0 | 10.0 | 0.00 | 0.00 | 0.00 | 58 | 1015.2 |
| 20260510075526 | 73 | 232 | 3.0 | 8.0 | 0.00 | 0.00 | 0.00 | 58 | 1015.1 |
| 20260510075026 | 72 | 221 | 2.0 | 6.0 | 0.00 | 0.00 | 0.00 | 59 | 1015.0 |
| 20260510074537 | 73 | 209 | 1.0 | 6.0 | 0.00 | 0.00 | 0.00 | 58 | 1015.0 |
| 20260510074026 | 73 | 201 | 2.0 | 6.0 | 0.00 | 0.00 | 0.00 | 59 | 1015.0 |
| 20260510073528 | 71 | 283 | 2.0 | 6.0 | 0.00 | 0.00 | 0.00 | 61 | 1014.9 |
| 20260510073040 | 71 | 277 | 1.0 | 6.0 | 0.00 | 0.00 | 0.00 | 60 | 1015.0 |
| 20260510072527 | 72 | 267 | 2.0 | 6.0 | 0.00 | 0.00 | 0.00 | 61 | 1015.2 |
| 20260510072027 | 71 | 217 | 3.0 | 6.0 | 0.00 | 0.00 | 0.00 | 61 | 1015.0 |
| 20260510071541 | 71 | 287 | 2.0 | 5.0 | 0.00 | 0.00 | 0.00 | 62 | 1015.1 |
| 20260510071027 | 70 | 0 | 0.0 | 7.0 | 0.00 | 0.00 | 0.00 | 63 | 1015.0 |
| 20260510070527 | 70 | 257 | 2.0 | 7.0 | 0.00 | 0.00 | 0.00 | 63 | 1014.9 |
| 20260510070045 | 70 | 256 | 1.0 | 6.0 | 0.00 | 0.00 | 0.00 | 63 | 1015.0 |
| 20260510065527 | 70 | 286 | 1.0 | 4.0 | 0.00 | 0.00 | 0.00 | 63 | 1014.9 |
| 20260510065028 | 70 | 273 | 1.0 | 4.0 | 0.00 | 0.00 | 0.00 | 65 | 1014.9 |
| 20260510064554 | 69 | 277 | 2.0 | 6.0 | 0.00 | 0.00 | 0.00 | 65 | 1014.9 |
| 20260510064026 | 68 | 259 | 3.0 | 6.0 | 0.00 | 0.00 | 0.00 | 66 | 1014.8 |
| 20260510063526 | 69 | 267 | 1.0 | 7.0 | 0.00 | 0.00 | 0.00 | 66 | 1014.8 |
| 20260510063044 | 69 | 227 | 2.0 | 7.0 | 0.00 | 0.00 | 0.00 | 65 | 1014.9 |
| 20260510062527 | 68 | 264 | 3.0 | 7.0 | 0.00 | 0.00 | 0.00 | 66 | 1014.9 |
| 20260510062028 | 68 | 273 | 2.0 | 4.0 | 0.00 | 0.00 | 0.00 | 65 | 1014.9 |
| 20260510061544 | 68 | 220 | 1.0 | 7.0 | 0.00 | 0.00 | 0.00 | 66 | 1014.9 |
| 20260510061026 | 68 | 254 | 3.0 | 7.0 | 0.00 | 0.00 | 0.00 | 66 | 1015.0 |
| 20260510060526 | 68 | 263 | 2.0 | 4.0 | 0.00 | 0.00 | 0.00 | 66 | 1015.1 |
| 20260510060040 | 67 | 236 | 2.0 | 4.0 | 0.00 | 0.00 | 0.00 | 66 | 1015.0 |
| 20260510055526 | 67 | 0 | 0.0 | 2.0 | 0.00 | 0.00 | 0.00 | 66 | 1015.0 |
| 20260510055026 | 67 | 0 | 0.0 | 2.0 | 0.00 | 0.00 | 0.00 | 65 | 1014.9 |
| 20260510054533 | 67 | 0 | 0.0 | 2.0 | 0.00 | 0.00 | 0.00 | 66 | 1014.9 |
| 20260510054027 | 66 | 0 | 0.0 | 2.0 | 0.00 | 0.00 | 0.00 | 67 | 1014.8 |
| 20260510053525 | 66 | 0 | 0.0 | 0.0 | 0.00 | 0.00 | 0.00 | 68 | 1014.6 |
| 20260510053037 | 66 | 0 | 0.0 | 0.0 | 0.00 | 0.00 | 0.00 | 68 | 1014.6 |
| 20260510052526 | 66 | 0 | 0.0 | 0.0 | 0.00 | 0.00 | 0.00 | 68 | 1014.6 |
| 20260510052026 | 66 | 0 | 0.0 | 0.0 | 0.00 | 0.00 | 0.00 | 69 | 1014.4 |
| 20260510051536 | 65 | 0 | 0.0 | 1.0 | 0.00 | 0.00 | 0.00 | 69 | 1014.4 |
| 20260510051026 | 65 | 0 | 0.0 | 2.0 | 0.00 | 0.00 | 0.00 | 69 | 1014.2 |
| 20260510050526 | 64 | 0 | 0.0 | 3.0 | 0.00 | 0.00 | 0.00 | 70 | 1014.1 |
| 20260510050040 | 64 | 225 | 0.0 | 4.0 | 0.00 | 0.00 | 0.00 | 70 | 1014.1 |
| 20260510045526 | 64 | 0 | 2.0 | 4.0 | 0.00 | 0.00 | 0.00 | 70 | 1014.3 |
| 20260510045026 | 64 | 0 | 2.0 | 5.0 | 0.00 | 0.00 | 0.00 | 70 | 1014.3 |
| 20260510044536 | 64 | 0 | 2.0 | 5.0 | 0.00 | 0.00 | 0.00 | 70 | 1014.2 |
| 20260510044026 | 63 | 154 | 0.0 | 4.0 | 0.00 | 0.00 | 0.00 | 71 | 1014.3 |
| 20260510043527 | 63 | 151 | 1.0 | 4.0 | 0.00 | 0.00 | 0.00 | 71 | 1014.3 |
| 20260510043036 | 63 | 138 | 1.0 | 4.0 | 0.00 | 0.00 | 0.00 | 70 | 1014.3 |
| 20260510042526 | 63 | 0 | 0.0 | 2.0 | 0.00 | 0.00 | 0.00 | 70 | 1014.2 |
| 20260510042026 | 63 | 0 | 0.0 | 2.0 | 0.00 | 0.00 | 0.00 | 71 | 1014.1 |
| 20260510041536 | 63 | 0 | 0.0 | 2.0 | 0.00 | 0.00 | 0.00 | 71 | 1014.0 |
| 20260510041026 | 63 | 0 | 0.0 | 2.0 | 0.00 | 0.00 | 0.00 | 72 | 1013.9 |
| 20260510040526 | 62 | 0 | 0.0 | 0.0 | 0.00 | 0.00 | 0.00 | 72 | 1014.0 |
| 20260510040035 | 62 | 0 | 0.0 | 0.0 | 0.00 | 0.00 | 0.00 | 73 | 1013.9 |
| 20260510035526 | 62 | 0 | 0.0 | 2.0 | 0.00 | 0.00 | 0.00 | 73 | 1013.8 |
| 20260510035026 | 62 | 0 | 0.0 | 2.0 | 0.00 | 0.00 | 0.00 | 72 | 1013.7 |
| 20260510034544 | 62 | 0 | 0.0 | 0.0 | 0.00 | 0.00 | 0.00 | 73 | 1013.7 |
| 20260510034026 | 62 | 0 | 0.0 | 3.0 | 0.00 | 0.00 | 0.00 | 73 | 1013.7 |
| 20260510033525 | 62 | 0 | 1.0 | 3.0 | 0.00 | 0.00 | 0.00 | 73 | 1013.8 |
| 20260510033033 | 62 | 0 | 1.0 | 2.0 | 0.00 | 0.00 | 0.00 | 72 | 1013.7 |
| 20260510032525 | 62 | 78 | 0.0 | 2.0 | 0.00 | 0.00 | 0.00 | 73 | 1013.7 |
| 20260510032026 | 62 | 0 | 0.0 | 2.0 | 0.00 | 0.00 | 0.00 | 72 | 1013.6 |
| 20260510031539 | 62 | 0 | 0.0 | 1.0 | 0.00 | 0.00 | 0.00 | 73 | 1013.7 |
| 20260510031025 | 62 | 0 | 0.0 | 2.0 | 0.00 | 0.00 | 0.00 | 72 | 1013.6 |
| 20260510030526 | 62 | 0 | 0.0 | 2.0 | 0.00 | 0.00 | 0.00 | 72 | 1013.7 |
| 20260510030038 | 62 | 360 | 0.0 | 1.0 | 0.00 | 0.00 | 0.00 | 72 | 1013.5 |
| 20260510025526 | 62 | 0 | 0.0 | 2.0 | 0.00 | 0.00 | 0.00 | 72 | 1013.6 |
| 20260510025028 | 62 | 0 | 0.0 | 2.0 | 0.00 | 0.00 | 0.00 | 71 | 1013.5 |
| 20260510024541 | 62 | 0 | 0.0 | 3.0 | 0.00 | 0.00 | 0.00 | 71 | 1013.5 |
| 20260510024026 | 63 | 0 | 0.0 | 3.0 | 0.00 | 0.00 | 0.00 | 70 | 1013.4 |
| 20260510023525 | 63 | 71 | 2.0 | 3.0 | 0.00 | 0.00 | 0.00 | 70 | 1013.4 |
| 20260510023033 | 63 | 0 | 0.0 | 0.0 | 0.00 | 0.00 | 0.00 | 71 | 1013.4 |
| 20260510022526 | 63 | 0 | 0.0 | 0.0 | 0.00 | 0.00 | 0.00 | 71 | 1013.5 |
| 20260510022025 | 62 | 0 | 0.0 | 0.0 | 0.00 | 0.00 | 0.00 | 71 | 1013.5 |
| 20260510021538 | 62 | 0 | 0.0 | 1.0 | 0.00 | 0.00 | 0.00 | 72 | 1013.6 |
| 20260510021029 | 62 | 0 | 0.0 | 1.0 | 0.00 | 0.00 | 0.00 | 72 | 1013.5 |
| 20260510020525 | 62 | 0 | 0.0 | 2.0 | 0.00 | 0.00 | 0.00 | 71 | 1013.6 |
| 20260510020035 | 63 | 0 | 0.0 | 3.0 | 0.00 | 0.00 | 0.00 | 71 | 1013.5 |
| 20260510015525 | 63 | 0 | 0.0 | 3.0 | 0.00 | 0.00 | 0.00 | 71 | 1013.5 |
| 20260510015026 | 63 | 0 | 0.0 | 3.0 | 0.00 | 0.00 | 0.00 | 71 | 1013.5 |
| 20260510014539 | 63 | 0 | 1.0 | 4.0 | 0.00 | 0.00 | 0.00 | 71 | 1013.4 |
| 20260510014026 | 63 | 0 | 1.0 | 4.0 | 0.00 | 0.00 | 0.00 | 71 | 1013.4 |
| 20260510013526 | 63 | 46 | 2.0 | 4.0 | 0.00 | 0.00 | 0.00 | 70 | 1013.5 |
| 20260510013042 | 63 | 298 | 1.0 | 2.0 | 0.00 | 0.00 | 0.00 | 70 | 1013.5 |
| 20260510012526 | 63 | 297 | 1.0 | 2.0 | 0.00 | 0.00 | 0.00 | 70 | 1013.5 |
| 20260510012026 | 63 | 0 | 0.0 | 0.0 | 0.00 | 0.00 | 0.00 | 70 | 1013.5 |
| 20260510011536 | 63 | 0 | 0.0 | 0.0 | 0.00 | 0.00 | 0.00 | 70 | 1013.4 |
| 20260510011025 | 63 | 0 | 0.0 | 0.0 | 0.00 | 0.00 | 0.00 | 69 | 1013.4 |
| 20260510010525 | 63 | 0 | 0.0 | 0.0 | 0.00 | 0.00 | 0.00 | 69 | 1013.4 |
| 20260510010036 | 63 | 0 | 0.0 | 1.0 | 0.00 | 0.00 | 0.00 | 69 | 1013.4 |
| 20260510005525 | 63 | 0 | 0.0 | 2.0 | 0.00 | 0.00 | 0.00 | 69 | 1013.4 |
| 20260510005024 | 63 | 0 | 0.0 | 3.0 | 0.00 | 0.00 | 0.00 | 69 | 1013.4 |
| 20260510004535 | 64 | 298 | 1.0 | 3.0 | 0.00 | 0.00 | 0.00 | 68 | 1013.3 |
| 20260510004026 | 64 | 360 | 2.0 | 3.0 | 0.00 | 0.00 | 0.00 | 69 | 1013.3 |
| 20260510003536 | 64 | 308 | 0.0 | 4.0 | 0.00 | 0.00 | 0.00 | 68 | 1013.2 |
| 20260510003045 | 64 | 360 | 2.0 | 4.0 | 0.00 | 0.00 | 0.00 | 68 | 1013.3 |
| 20260510002525 | 64 | 229 | 1.0 | 4.0 | 0.00 | 0.00 | 0.00 | 67 | 1013.4 |
| 20260510002024 | 64 | 360 | 1.0 | 4.0 | 0.00 | 0.00 | 0.00 | 67 | 1013.3 |
| 20260510001537 | 64 | 195 | 2.0 | 4.0 | 0.00 | 0.00 | 0.00 | 66 | 1013.4 |
| 20260510001027 | 64 | 200 | 1.0 | 4.0 | 0.00 | 0.00 | 0.00 | 66 | 1013.4 |
| 20260510000526 | 64 | 200 | 1.0 | 5.0 | 0.00 | 0.00 | 0.00 | 66 | 1013.4 |
| 20260510000036 | 64 | 200 | 3.0 | 5.0 | 0.00 | 0.00 | 0.00 | 66 | 1013.4 |
| 20260509235525 | 64 | 132 | 1.0 | 4.0 | 0.00 | 0.00 | 0.00 | 66 | 1013.4 |
| 20260509235025 | 64 | 0 | 0.0 | 0.0 | 0.00 | 0.00 | 0.00 | 66 | 1013.4 |
| 20260509234552 | 64 | 0 | 0.0 | 0.0 | 0.00 | 0.00 | 0.00 | 66 | 1013.5 |
| 20260509234029 | 64 | 0 | 0.0 | 2.0 | 0.00 | 0.00 | 0.00 | 66 | 1013.6 |
| 20260509233527 | 64 | 0 | 0.0 | 2.0 | 0.00 | 0.00 | 0.00 | 67 | 1013.7 |
| 20260509233046 | 64 | 113 | 1.0 | 2.0 | 0.00 | 0.00 | 0.00 | 67 | 1013.6 |
| 20260509232526 | 64 | 0 | 0.0 | 0.0 | 0.00 | 0.00 | 0.00 | 67 | 1013.7 |
| 20260509232025 | 64 | 0 | 0.0 | 0.0 | 0.00 | 0.00 | 0.00 | 67 | 1013.6 |
| 20260509231545 | 65 | 0 | 0.0 | 2.0 | 0.00 | 0.00 | 0.00 | 68 | 1013.7 |
| 20260509231026 | 65 | 0 | 0.0 | 2.0 | 0.00 | 0.00 | 0.00 | 68 | 1013.6 |
| 20260509230525 | 64 | 0 | 0.0 | 2.0 | 0.00 | 0.00 | 0.00 | 67 | 1013.6 |
| 20260509230036 | 65 | 0 | 0.0 | 3.0 | 0.00 | 0.00 | 0.00 | 67 | 1013.6 |
| 20260509225526 | 65 | 0 | 0.0 | 3.0 | 0.00 | 0.00 | 0.00 | 68 | 1013.6 |
| 20260509225025 | 65 | 97 | 2.0 | 4.0 | 0.00 | 0.00 | 0.00 | 68 | 1013.7 |